GW0992 Weather Reports


time (UTC)temp
C
wind
direction
speed
KPH
gust
KPH
rain 1hr
cm
rain 24hr
cm
rain mn
cm
humidity
%
barometer
mb
20260504050020 10 272 1.6 11.3 0.00 0.00 0.00 45 1010.9
20260504044509 10 277 3.2 12.9 0.00 0.00 0.00 48 1010.8
20260504043101 8 269 1.6 6.4 0.00 0.00 0.00 54 1010.7
20260504041546 7 330 0.0 1.6 0.00 0.00 0.00 60 1010.5
20260504040027 7 329 0.0 0.0 0.00 0.00 0.00 60 1010.5
20260504034529 7 329 0.0 0.0 0.00 0.00 0.00 62 1010.4
20260504033108 7 330 0.0 0.0 0.00 0.00 0.00 62 1010.5
20260504031535 7 330 0.0 0.0 0.00 0.00 0.00 60 1010.4
20260504030012 7 329 0.0 1.6 0.00 0.00 0.00 59 1010.5
20260504024601 8 329 0.0 0.0 0.00 0.00 0.00 57 1010.4
20260504024516 8 329 0.0 0.0 0.00 0.00 0.00 57 1010.4
20260504023044 8 329 0.0 0.0 0.00 0.00 0.00 55 1010.4
20260504021527 8 329 0.0 0.0 0.00 0.00 0.00 54 1010.4
20260504020058 9 329 0.0 0.0 0.00 0.00 0.00 51 1010.5
20260504014540 10 329 0.0 0.0 0.00 0.00 0.00 49 1010.3
20260504013020 10 329 0.0 1.6 0.00 0.00 0.00 46 1010.1
20260504011514 11 329 0.0 0.0 0.00 0.00 0.00 42 1010.1
20260504010055 12 329 0.0 0.0 0.00 0.00 0.00 38 1009.9
20260504004542 12 329 0.0 0.0 0.00 0.00 0.00 35 1009.6
20260504003022 13 329 0.0 1.6 0.00 0.00 0.00 34 1009.5
20260504001510 13 330 0.0 3.2 0.00 0.00 0.00 33 1009.2
20260504000050 13 318 0.0 4.8 0.00 0.00 0.00 32 1009.1
20260503234537 14 313 0.0 6.4 0.00 0.00 0.00 31 1008.9
20260503233013 14 334 3.2 14.5 0.00 0.00 0.00 30 1008.7
20260503231557 15 291 0.0 8.0 0.00 0.00 0.00 30 1008.6
20260503230013 15 273 9.7 24.1 0.00 0.00 0.00 29 1008.5
20260503224534 15 305 4.8 17.7 0.00 0.00 0.00 28 1008.4
20260503223004 15 20 6.4 17.7 0.00 0.00 0.00 28 1008.4
20260503221550 15 305 6.4 16.1 0.00 0.00 0.00 28 1008.4
20260503220016 15 355 9.7 19.3 0.00 0.00 0.00 27 1008.4
20260503214543 15 13 3.2 17.7 0.00 0.00 0.00 27 1008.5
20260503213029 15 311 6.4 22.5 0.00 0.00 0.00 28 1008.4
20260503211507 15 327 6.4 20.9 0.00 0.00 0.00 27 1008.3
20260503210041 15 340 8.0 24.1 0.00 0.00 0.00 28 1008.2
20260503204559 15 276 9.7 19.3 0.00 0.00 0.00 28 1008.3
20260503203015 15 279 9.7 29.0 0.00 0.00 0.00 29 1008.4
20260503201559 14 24 8.0 22.5 0.00 0.00 0.00 29 1008.4
20260503200021 15 360 14.5 27.4 0.00 0.00 0.00 29 1008.5
20260503194548 15 289 8.0 25.7 0.00 0.00 0.00 29 1008.6
20260503193034 13 306 9.7 19.3 0.00 0.00 0.00 31 1008.7
20260503191545 14 345 9.7 20.9 0.00 0.00 0.00 31 1008.9
20260503190050 13 343 8.0 19.3 0.00 0.00 0.00 32 1009.0
20260503184505 13 23 4.8 19.3 0.00 0.00 0.00 34 1009.0
20260503183040 12 326 6.4 22.5 0.00 0.00 0.00 34 1009.3
20260503181514 12 266 8.0 27.4 0.00 0.00 0.00 35 1009.2
20260503180047 12 329 4.8 25.7 0.00 0.00 0.00 35 1009.4
20260503174528 12 315 4.8 17.7 0.00 0.00 0.00 35 1009.5
20260503173050 12 344 8.0 29.0 0.00 0.00 0.00 36 1009.6
20260503171536 12 292 4.8 24.1 0.00 0.00 0.00 35 1009.6
20260503140109 10 355 14.5 27.4 0.00 0.00 0.00 43 1010.0
20260503081605 7 44 0.0 8.0 0.00 0.05 0.00 53 1008.7
20260503071531 7 26 3.2 11.3 0.00 0.05 0.00 51 1008.6